When you browse on this site, cookies collect data to enhance your experience and personalize the content and advertising you see.
Visit our Privacy Policy to learn more. By continuing to use the site, you agree to this use of cookies and data.
  • In Latvia
  • List of Countries
  • For 7 days
  • Water Temperature
  • Satellite Maps
  • Weather Map
  • Weather Widgets
  • user-avatar
    Login

    Hourly Weather Hrazdan

    Today, 18 July, Thursday

    Time Temperature Precipitation Wind Pressure Humidity
    00:00 +16°C° 0 mm 2 mps 610 mmHg 84%
    01:00 +15°C° 0 mm 2 mps 610 mmHg 84%
    02:00 +15°C° 0 mm 2 mps 610 mmHg 85%
    03:00 +15°C° 0 mm 2 mps 610 mmHg 85%
    04:00 +16°C° 0 mm 1 mps 610 mmHg 84%
    05:00 +16°C° 0 mm 1 mps 610 mmHg 83%
    06:00 +16°C° 0 mm 1 mps 611 mmHg 82%
    07:00 +19°C° 0 mm 1 mps 612 mmHg 74%
    08:00 +21°C° 0 mm 1 mps 612 mmHg 67%
    09:00 +23°C° 0 mm 1 mps 613 mmHg 59%
    10:00 +24°C° 0 mm 2 mps 613 mmHg 54%
    11:00 +26°C° 0 mm 2 mps 613 mmHg 49%
    12:00 +27°C° 0 mm 2 mps 613 mmHg 44%
    13:00 +27°C° 0.1 mm 2 mps 613 mmHg 44%
    14:00 +27°C° 0.1 mm 2 mps 613 mmHg 44%
    15:00 +27°C° 0.1 mm 3 mps 613 mmHg 44%
    16:00 +26°C° 0.2 mm 2 mps 612 mmHg 51%
    17:00 +25°C° 0.2 mm 2 mps 612 mmHg 59%
    18:00 +24°C° 0.2 mm 2 mps 611 mmHg 66%
    19:00 +21°C° 0 mm 2 mps 611 mmHg 71%
    20:00 +19°C° 0 mm 2 mps 611 mmHg 75%
    21:00 +17°C° 0 mm 2 mps 610 mmHg 80%
    22:00 +17°C° 0 mm 2 mps 611 mmHg 79%
    23:00 +17°C° 0 mm 2 mps 611 mmHg 78%

    Tomorrow, 19 July, Friday

    Time Temperature Precipitation Wind Pressure Humidity
    00:00 +16°C° 0 mm 2 mps 611 mmHg 78%
    01:00 +16°C° 0 mm 2 mps 611 mmHg 79%
    02:00 +16°C° 0 mm 2 mps 611 mmHg 80%
    03:00 +15°C° 0 mm 2 mps 611 mmHg 81%
    04:00 +16°C° 0 mm 1 mps 611 mmHg 81%
    05:00 +16°C° 0 mm 1 mps 612 mmHg 81%
    06:00 +18°C° 0 mm 1 mps 612 mmHg 81%
    07:00 +18°C° 0 mm 2 mps 613 mmHg 76%
    08:00 +20°C° 0 mm 2 mps 613 mmHg 71%
    09:00 +23°C° 0 mm 2 mps 614 mmHg 66%
    10:00 +24°C° 0 mm 2 mps 614 mmHg 62%
    11:00 +25°C° 0 mm 3 mps 615 mmHg 58%
    12:00 +26°C° 0 mm 3 mps 615 mmHg 54%
    13:00 +26°C° 0.1 mm 3 mps 615 mmHg 55%
    14:00 +26°C° 0.1 mm 3 mps 614 mmHg 56%
    15:00 +26°C° 0.1 mm 3 mps 614 mmHg 57%
    16:00 +25°C° 0.2 mm 3 mps 614 mmHg 63%
    17:00 +24°C° 0.2 mm 3 mps 614 mmHg 68%
    18:00 +22°C° 0.2 mm 3 mps 613 mmHg 73%
    19:00 +20°C° 0 mm 3 mps 613 mmHg 77%
    20:00 +19°C° 0 mm 3 mps 613 mmHg 81%
    21:00 +17°C° 0 mm 3 mps 613 mmHg 85%
    22:00 +17°C° 0 mm 3 mps 613 mmHg 86%
    23:00 +16°C° 0 mm 3 mps 614 mmHg 86%

    Day after tomorrow, 20 July, Saturday

    Time Temperature Precipitation Wind Pressure Humidity
    00:00 +16°C° 0 mm 3 mps 614 mmHg 87%
    01:00 +16°C° 0 mm 3 mps 614 mmHg 87%
    02:00 +16°C° 0 mm 2 mps 614 mmHg 87%
    03:00 +15°C° 0 mm 2 mps 614 mmHg 88%
    04:00 +16°C° 0 mm 2 mps 614 mmHg 87%
    05:00 +16°C° 0 mm 2 mps 614 mmHg 87%
    06:00 +16°C° 0 mm 2 mps 615 mmHg 87%
    07:00 +18°C° 0 mm 2 mps 615 mmHg 81%
    08:00 +20°C° 0 mm 2 mps 616 mmHg 75%
    09:00 +23°C° 0 mm 2 mps 617 mmHg 68%
    10:00 +24°C° 0 mm 2 mps 617 mmHg 66%
    11:00 +25°C° 0 mm 3 mps 617 mmHg 63%
    12:00 +26°C° 0 mm 3 mps 617 mmHg 60%
    13:00 +26°C° 0 mm 3 mps 617 mmHg 60%
    14:00 +26°C° 0 mm 3 mps 617 mmHg 61%
    15:00 +27°C° 0 mm 3 mps 617 mmHg 61%
    16:00 +26°C° 0 mm 3 mps 616 mmHg 66%
    17:00 +25°C° 0 mm 3 mps 616 mmHg 71%
    18:00 +24°C° 0 mm 3 mps 616 mmHg 76%
    19:00 +21°C° 0 mm 3 mps 616 mmHg 79%
    20:00 +20°C° 0 mm 3 mps 616 mmHg 83%
    21:00 +18°C° 0 mm 3 mps 616 mmHg 87%
    22:00 +18°C° 0 mm 3 mps 616 mmHg 85%
    23:00 +17°C° 0 mm 3 mps 616 mmHg 84%

    21 July, Sunday

    Time Temperature Precipitation Wind Pressure Humidity
    00:00 +17°C° 0 mm 2 mps 616 mmHg 83%
    01:00 +17°C° 0 mm 2 mps 616 mmHg 83%
    02:00 +16°C° 0 mm 2 mps 615 mmHg 83%
    03:00 +16°C° 0 mm 2 mps 615 mmHg 83%
    04:00 +16°C° 0 mm 2 mps 615 mmHg 82%
    05:00 +17°C° 0 mm 2 mps 616 mmHg 81%
    06:00 +17°C° 0 mm 2 mps 616 mmHg 81%
    07:00 +19°C° 0 mm 2 mps 616 mmHg 74%
    08:00 +21°C° 0 mm 2 mps 617 mmHg 68%
    09:00 +24°C° 0 mm 2 mps 617 mmHg 61%
    10:00 +25°C° 0 mm 2 mps 617 mmHg 59%
    11:00 +26°C° 0 mm 3 mps 618 mmHg 57%
    12:00 +27°C° 0 mm 3 mps 618 mmHg 55%
    13:00 +27°C° 0 mm 3 mps 617 mmHg 56%
    14:00 +28°C° 0 mm 3 mps 617 mmHg 57%
    15:00 +28°C° 0 mm 3 mps 616 mmHg 58%
    16:00 +27°C° 0 mm 3 mps 616 mmHg 62%
    17:00 +26°C° 0 mm 3 mps 615 mmHg 67%
    18:00 +24°C° 0 mm 3 mps 615 mmHg 71%
    19:00 +22°C° 0 mm 3 mps 615 mmHg 73%
    20:00 +20°C° 0 mm 3 mps 614 mmHg 75%
    21:00 +18°C° 0 mm 3 mps 614 mmHg 77%
    22:00 +18°C° 0 mm 2 mps 614 mmHg 76%
    23:00 +17°C° 0 mm 2 mps 614 mmHg 75%

    22 July, Monday

    Time Temperature Precipitation Wind Pressure Humidity
    00:00 +17°C° 0 mm 2 mps 613 mmHg 73%
    01:00 +17°C° 0 mm 2 mps 613 mmHg 74%
    02:00 +17°C° 0 mm 2 mps 613 mmHg 74%
    03:00 +16°C° 0 mm 2 mps 613 mmHg 75%
    04:00 +17°C° 0 mm 2 mps 613 mmHg 75%
    05:00 +17°C° 0 mm 2 mps 613 mmHg 75%
    06:00 +17°C° 0 mm 2 mps 613 mmHg 74%
    07:00 +19°C° 0 mm 2 mps 614 mmHg 69%
    08:00 +21°C° 0 mm 2 mps 614 mmHg 64%
    09:00 +24°C° 0 mm 2 mps 615 mmHg 59%
    10:00 +26°C° 0 mm 3 mps 615 mmHg 57%
    11:00 +27°C° 0 mm 3 mps 615 mmHg 55%
    12:00 +28°C° 0 mm 3 mps 615 mmHg 53%
    13:00 +28°C° 0.1 mm 3 mps 615 mmHg 54%
    14:00 +28°C° 0.1 mm 3 mps 614 mmHg 56%
    15:00 +28°C° 0.1 mm 4 mps 614 mmHg 57%
    16:00 +26°C° 0.1 mm 4 mps 613 mmHg 62%
    17:00 +25°C° 0.1 mm 4 mps 613 mmHg 68%
    18:00 +22°C° 0.1 mm 4 mps 612 mmHg 73%
    19:00 +21°C° 0 mm 4 mps 612 mmHg 76%
    20:00 +19°C° 0 mm 3 mps 612 mmHg 79%
    21:00 +17°C° 0 mm 3 mps 612 mmHg 82%
    22:00 +17°C° 0 mm 3 mps 612 mmHg 82%
    23:00 +17°C° 0 mm 3 mps 612 mmHg 83%

    23 July, Tuesday

    Time Temperature Precipitation Wind Pressure Humidity
    00:00 +16°C° 0 mm 3 mps 612 mmHg 83%
    01:00 +16°C° 0 mm 2 mps 612 mmHg 84%
    02:00 +16°C° 0 mm 2 mps 612 mmHg 85%
    03:00 +15°C° 0 mm 2 mps 611 mmHg 86%
    04:00 +16°C° 0 mm 2 mps 612 mmHg 85%
    05:00 +16°C° 0 mm 2 mps 612 mmHg 85%
    06:00 +17°C° 0 mm 2 mps 612 mmHg 85%
    07:00 +18°C° 0 mm 2 mps 613 mmHg 80%
    08:00 +20°C° 0 mm 2 mps 613 mmHg 75%
    09:00 +21°C° 0 mm 2 mps 613 mmHg 70%
    10:00 +23°C° 0.1 mm 2 mps 614 mmHg 68%
    11:00 +24°C° 0.1 mm 3 mps 614 mmHg 66%
    12:00 +25°C° 0.1 mm 3 mps 614 mmHg 64%
    13:00 +25°C° 0.4 mm 3 mps 613 mmHg 62%
    14:00 +25°C° 0.4 mm 3 mps 613 mmHg 60%
    15:00 +26°C° 0.4 mm 3 mps 613 mmHg 59%
    16:00 +25°C° 0.5 mm 3 mps 613 mmHg 63%
    17:00 +24°C° 0.5 mm 3 mps 612 mmHg 67%
    18:00 +22°C° 0.5 mm 4 mps 612 mmHg 72%
    19:00 +20°C° 0.4 mm 3 mps 612 mmHg 75%
    20:00 +19°C° 0.4 mm 3 mps 612 mmHg 79%
    21:00 +18°C° 0.4 mm 2 mps 612 mmHg 82%
    22:00 +17°C° 0.1 mm 2 mps 612 mmHg 83%
    23:00 +17°C° 0.1 mm 2 mps 612 mmHg 83%
    Show more